User: anonymous   Login
Location: Zilina
(0.0000°N, 18.7333°E)
Time: 02:31:20
(UTC+02:00)
Language:

Cosmos 2298 Rocket - Orbit

View from above orbital plane
View from above orbital plane
View from above satellite
View from above satellite

Ground track
Ground track

The orbit data is extracted from the following two-line orbital elements,

1 23432U 94083B   19141.85055156 -.00000009  00000-0  62621-5 0  9991
2 23432  74.0326  91.1827 0004593 139.1233 285.5177 14.33517800277136
Epoch (UTC): 21 May 2019 20:24:47
Eccentricity: 0.0004593
inclination: 74.0326°
perigee height: 777 km
apogee height: 783 km
right ascension of ascending node: 91.1827°
argument of perigee: 139.1233°
revolutions per day: 14.33517800
mean anomaly at epoch: 285.5177°
orbit number at epoch: 27713

The dashed part of the orbit path shows where the satellite is in the earth's shadow,  

DLR